Blountville, TN

5:12 AM EST on January 22, 2017 (GMT -0500)
Tri-Cities Regional Tennessee / Virginia

Weather History for KTRI - December, 2013

Change the Weather History Date:

Tuesday, December 17, 2013

  Actual Average Record
Temperature  
Mean Temperature 40 °F 37 °F  
Max Temperature 54 °F 47 °F 69 °F (2001)
Min Temperature 26 °F 27 °F 6 °F (1989)
Degree Days  
Heating Degree Days 25 28  
Month to date heating degree days 385 440  
Since 1 July heating degree days 1276 1326  
Cooling Degree Days 0 0  
Month to date cooling degree days 0 0  
Year to date cooling degree days 1003 981  
Moisture  
Dew Point 27 °F    
Average Humidity 67    
Maximum Humidity 92    
Minimum Humidity 41    
Precipitation  
Precipitation 0.02 in 0.11 in 1.11 in (1961)
Month to date precipitation 3.18 1.92  
Year to date precipitation 54.52 39.56  
Snow  
Snow 0.00 in 0.10 in - ()
Month to date snowfall 0.0 1.1  
Since 1 July snowfall 1.4 1.4  
Snow Depth 0.00 in    
Sea Level Pressure  
Sea Level Pressure 30.07 in    
Wind  
Wind Speed 9 mph (West)    
Max Wind Speed 25 mph    
Max Gust Speed 34 mph    
Visibility 9 miles    
Events Rain    
T = Trace of Precipitation, MM = Missing Value Source: NWS Daily Summary

Daily Weather History Graph

Daily Weather History Graph

Search for Another Location

Airport or City:

Trip Planner

Search our weather history database for the weather conditions in past years. The results will help you decide how hot, cold, wet, or windy it might be!

Date:

Astronomy

Dec. 17, 2013 Rise Set
Actual Time 7:35 AM EST 5:16 PM EST
Civil Twilight 7:06 AM EST 5:45 PM EST
Nautical Twilight 6:34 AM EST 6:17 PM EST
Astronomical Twilight 6:03 AM EST 6:48 PM EST
Moon 5:53 PM EST (12/17) 7:32 AM EST (12/17)
Length of Visible Light 10h 38m
Length of Day
9h 40m
Full, 100% of the Moon is Illuminated
Dec 17
Full
Dec 25
Last Quarter
Jan 1
New
Jan 7
First Quarter
Jan 15
Full

Hourly Weather History & Observations

Time (EST) Temp. Windchill Dew Point Humidity Pressure Visibility Wind Dir Wind Speed Gust Speed Precip Events Conditions
12:53 AM 28.0 °F - 24.1 °F 85% 30.13 in 9.0 mi Calm Calm - N/A   Clear
1:53 AM 28.0 °F - 25.0 °F 88% 30.12 in 9.0 mi Calm Calm - N/A   Scattered Clouds
2:53 AM 28.0 °F - 24.1 °F 85% 30.13 in 7.0 mi Calm Calm - N/A   Clear
3:53 AM 27.0 °F - 24.1 °F 89% 30.12 in 8.0 mi Calm Calm - N/A   Clear
4:53 AM 28.0 °F - 24.1 °F 85% 30.12 in 7.0 mi Calm Calm - N/A   Clear
5:53 AM 27.0 °F - 23.0 °F 85% 30.12 in 7.0 mi Calm Calm - N/A   Clear
6:53 AM 27.0 °F 23.0 °F 24.1 °F 89% 30.12 in 1.5 mi North 3.5 mph - N/A   Partly Cloudy
7:23 AM 27.0 °F - 24.1 °F 89% 30.12 in 9.0 mi Calm Calm - N/A   Scattered Clouds
7:53 AM 28.0 °F - 25.0 °F 88% 30.13 in 9.0 mi Calm Calm - N/A   Mostly Cloudy
8:53 AM 37.0 °F - 32.0 °F 82% 30.12 in 10.0 mi Calm Calm - N/A   Mostly Cloudy
9:53 AM 45.0 °F - 33.1 °F 63% 30.12 in 10.0 mi Calm Calm - N/A   Mostly Cloudy
10:53 AM 48.9 °F - 30.0 °F 48% 30.10 in 10.0 mi WSW 18.4 mph - N/A   Scattered Clouds
11:53 AM 48.9 °F - 30.0 °F 48% 30.06 in 10.0 mi West 12.7 mph - N/A   Mostly Cloudy
12:53 PM 52.0 °F - 30.9 °F 45% 30.01 in 10.0 mi WSW 15.0 mph - N/A   Mostly Cloudy
1:53 PM 52.0 °F - 30.9 °F 45% 29.97 in 10.0 mi SW 16.1 mph - N/A   Mostly Cloudy
2:53 PM 54.0 °F - 30.9 °F 41% 29.94 in 10.0 mi WSW 13.8 mph - N/A   Scattered Clouds
3:53 PM 53.1 °F - 30.9 °F 43% 29.94 in 10.0 mi SW 20.7 mph 26.5 mph N/A   Scattered Clouds
4:53 PM 51.1 °F - 30.9 °F 46% 29.93 in 10.0 mi SW 15.0 mph - N/A   Mostly Cloudy
5:53 PM 50.0 °F - 33.1 °F 52% 29.96 in 8.0 mi WSW 16.1 mph 25.3 mph 0.00 in Rain Light Rain
6:53 PM 46.0 °F 38.0 °F 34.0 °F 63% 30.03 in 10.0 mi NW 21.9 mph 32.2 mph 0.02 in   Overcast
7:00 PM 45.0 °F 37.6 °F 34.0 °F 65% 30.05 in 10.0 mi WNW 17.3 mph 32.2 mph N/A   Overcast
7:53 PM 43.0 °F 36.0 °F 28.9 °F 58% 30.06 in 10.0 mi West 13.8 mph 19.6 mph N/A   Scattered Clouds
8:53 PM 42.1 °F 33.9 °F 25.0 °F 51% 30.07 in 10.0 mi West 17.3 mph - N/A   Scattered Clouds
9:53 PM 39.0 °F 33.4 °F 23.0 °F 53% 30.10 in 10.0 mi West 8.1 mph - N/A   Mostly Cloudy
10:53 PM 39.0 °F 32.8 °F 21.0 °F 49% 30.13 in 10.0 mi WNW 9.2 mph - N/A   Mostly Cloudy
11:53 PM 36.0 °F 28.5 °F 17.1 °F 46% 30.15 in 10.0 mi West 10.4 mph - N/A   Scattered Clouds